Domov               UVHVVR             MKGP            O straneh              
ZDRAVSTVENO VARSTVO RASTLIN
  MREŽA AGROMET. POSTAJ
 ► PROGNOSTIČNA OBVESTILA
AGROMETEOROLOŠKI PODATKI -
ARSO
OBVLADOVANJE TVEGANJ ZARADI
NEUGODNIH VREMENSKIH RAZMER
  ► NARAVNE NESREČE
  ► SUŠA/MOČA
  ► NAMAKANJE
  ► ŽLED (gozdarstvo)
KARTOGRAFSKI PRIKAZI
SPLETNE POVEZAVE
PROJEKTI IN PUBLIKACIJE

AGROMETEOROLOŠKA MREŽA: VREMENSKE POSTAJE IN FENOLOŠKA OPAZOVANJA

Pregled podatkov za lokacijo Dragonja, meteorološka postaja 42389

Pregled senzorjev na lokaciji

ID Ime Zadnja
vrednost
Datum
zadnje
spremembe
Tip
senzorja
2095 Temperatura 2 m ( °C) 15,5 °C 23.10.2017 11:00 50YA
2096 Relativna vlaga 2 m (% RH) 63,35 % RH 23.10.2017 11:00 50YA
2097 Omočenost lista (U) 0 U 23.10.2017 11:00 A730WET
2098 Padavine 0.2 mm (mm) 0 mm 23.10.2017 11:00 Rain-O-Matic

Pregled podatkov zadnjih 24 ur

Zap.
št.
Datum in čas Dragonja
Omočenost
lista
Padavine
0.2
mm
Relativna
vlaga
2
m
Temperatura
2
m
0 23.10.2017 10:00 0 0 63,35 15,5
1 23.10.2017 09:30 0 0 66,79 14,09
2 23.10.2017 09:00 0 0 68,99 12,79
3 23.10.2017 08:30 0 0 73,5 11,58
4 23.10.2017 08:00 0 0 83,39 9,68
5 23.10.2017 07:30 0 0 88,18 8,19
6 23.10.2017 07:00 0 0 87,94 7,95
7 23.10.2017 06:30 0 0 85,24 8,38
8 23.10.2017 06:00 0 0 81,74 9,28
9 23.10.2017 05:30 0 0 79,58 9,3
10 23.10.2017 05:00 0 0 72,39 9,85
11 23.10.2017 04:30 0 0 66,41 10,25
12 23.10.2017 04:00 0 0 62,59 10,44
13 23.10.2017 03:30 0 0 76,41 9,25
14 23.10.2017 03:00 0 0 82,04 8,95
15 23.10.2017 02:30 0 0,2 80,25 9,11
16 23.10.2017 02:00 0 0 70,84 9,95
17 23.10.2017 01:30 0 0,2 64,32 10,41
18 23.10.2017 01:00 0 0,2 61,14 10,68
19 23.10.2017 00:30 0 0,2 63,17 10,39
20 23.10.2017 00:00 0 0 58,64 11,01
21 22.10.2017 23:30 0 0 54,07 11,46
22 22.10.2017 23:00 0 0 56,26 11,12
23 22.10.2017 22:30 0 0 59,16 10,52
24 22.10.2017 22:00 0 0 60 10,41
25 22.10.2017 21:30 0 0 58,44 11,22
26 22.10.2017 21:00 0 0 61,13 11,33
27 22.10.2017 20:30 0 0 62,73 11,52
28 22.10.2017 20:00 0 0 65,18 11,42
29 22.10.2017 19:30 0 0 66,59 11,19
30 22.10.2017 19:00 0 0 69,3 11,6
31 22.10.2017 18:30 0 0 74,21 11,75
32 22.10.2017 18:00 0,2 76,26 12,05
33 22.10.2017 17:30 0 0 76,34 12,96
34 22.10.2017 17:00 0,2 87,01 13,87
35 22.10.2017 16:30 4,2 91,38 15,18
36 22.10.2017 16:00 2,2 90,42 15,94
37 22.10.2017 15:30 2,4 90,05 17,29
38 22.10.2017 15:00 2,2 88,03 17,69
39 22.10.2017 14:30 1,2 77,56 19,12
40 22.10.2017 14:00 0 0 71,47 20,2
41 22.10.2017 13:30 0 0 70,4 20,23
42 22.10.2017 13:00 0 0 70,68 20,05
43 22.10.2017 12:30 0 0 71,81 19,92
44 22.10.2017 12:00 0 0 73,23 19,98
© 2011 Ministrstvo za kmetijstvo, gozdarstvo in prehrano. Vse pravice pridržane.